Regional Weather Roundup
Issued by NWS Green Bay, WI

Home | Current Version | Previous Version | Text Only | Print | Product List | Glossary On
Versions: 1 2 3 4 5 6 7 8 9 10 11 12 13 14 15 16 17 18 19 20 21 22 23 24 25 26 27 28 29 30 31 32 33 34 35 36 37 38 39 40 41 42 43 44 45 46 47 48 49 50
000
ASUS43 KGRB 201559
RWRGRB

NORTH-CENTRAL AND NORTHEAST WISCONSIN REGIONAL WEATHER ROUNDUP
NATIONAL WEATHER SERVICE GREEN BAY WI
1100 AM CDT SAT SEP 20 2014

WIZ005-009-010>012-018-019-201700-
NORTH CENTRAL WISCONSIN

CITY           SKY/WX    TMP DP  RH WIND       PRES   REMARKS
IRONWOOD       PTSUNNY   64  57  77 W14G24    29.67R
MANITOWISH WTR NOT AVBL
ARBOR VITAE    NOT AVBL
EAGLE RIVER    NOT AVBL
LAND O LAKES   NOT AVBL
RHINELANDER    MOSUNNY   71  60  68 W15G24    29.69S
PHILLIPS       CLOUDY    66  57  74 W9G16     29.72R
ANTIGO         NOT AVBL
TOMAHAWK       NOT AVBL
MERRILL        NOT AVBL
$$

WIZ013-073-201700-
NORTHEAST WISCONSIN

CITY           SKY/WX    TMP DP  RH WIND       PRES   REMARKS
IRON MOUNTAIN  MOSUNNY   74  61  63 W15G25    29.62F
MARINETTE      CLOUDY    70  63  78 W9        29.65S
$$

WIZ017-030-035>037-045-201700-
CENTRAL WISCONSIN

CITY           SKY/WX    TMP DP  RH WIND       PRES   REMARKS
MEDFORD        NOT AVBL
WAUSAU         PTSUNNY   71  62  73 W18       29.70S
MOSINEE        CLOUDY    66  64  94 W13G20    29.74R
MARSHFIELD     CLOUDY    69  63  81 W15       29.75R
WISC RAPIDS    CLOUDY    70  63  78 W8G18     29.75F
STEVENS POINT  NOT AVBL
WAUPACA        NOT AVBL
SHAWANO        CLOUDY    71  64  78 W7G17     29.69F
CLINTONVILLE   CLOUDY    70  63  78 W10G16    29.69F
$$

WIZ038-039-048-051-201700-
FOX VALLEY

CITY           SKY/WX    TMP DP  RH WIND       PRES   REMARKS
NWS GREEN BAY  CLOUDY    71  63  75 SW14G21   29.70F
APPLETON       PTSUNNY   72  64  78 SW20G25   29.72S
OSHKOSH        MOSUNNY   72  63  73 SW10G21   29.72S
FOND DU LAC    MOSUNNY   71  62  73 SW15G32   29.74F
$$

WIZ022-050-052-201700-
EAST CENTRAL WISCONSIN

CITY           SKY/WX    TMP DP  RH WIND       PRES   REMARKS
STURGEON BAY   PTSUNNY   70  63  78 W16G23    29.68S
MANITOWOC      NOT AVBL
SHEBOYGAN      MOSUNNY   74  62  66 SW17G28   29.73F
$$

LMZ563-521-522-541>543-201700-
LAKESHORE

STATION/POSITION TIME  TEMP    WIND        PRES    VSBY  WAVE
                       AIR SEA DIR/SP/G                  HT/PER
                 (UTC) (F)     (DEG/KT/KT) (MB)    (MI)  (FT/S)
SHEBOYGAN LKSHOR 1500   67 54  230/  9/ 11 1007.3F
KEWAUNEE LKSHORE 1500   70     240/ 12/ 19 1004.8F
TWO RIVERS CG    1500   56                 1007.3      6   3
NORTHPORT PIER   1500   67     150/  3/  8 1004.1S
N MID LAKE BUOY  1500   60 58  200/ 19/ 25 1004.0F         5/ 7
S GREEN BAY BUOY 1500   63     VRB 12/ 16  1006.2R
STURGEON BAY CG  1500   68 55  200/  4     1005.6      6   2
CHAMBERS ISLAND  1500   63     200/  7/ 12 1004.1S
MENOMINEE LKSHOR 1500   69     240/ 12/ 18 1004.9R
$$


USA.gov is the U.S. government's official web portal to all federal, state and local government web resources and services.